Tracking 19720 objects as of 27-Jun-2019
HD Live streaming from Space Station
objects crossing your sky now

LES 6

Track LES 6 now!
LES 6 is classified as:


NORAD ID: 3431
Int'l Code: 1968-081D
Perigee: 35,769.0 km
Apogee: 35,853.9 km
Inclination: 5.1 °
Period: 1,437.0 minutes
Semi major axis: 42182 km
RCS: 3.1622 m2 (large)
Launch date: September 26, 1968
Source: United States (US)
Launch site: AIR FORCE EASTERN TEST RANGE (AFETR)
aabbcc
Your satellite tracking list
Your tracking list is empty




NASA's NSSDC Master Catalog

Two Line Element Set (TLE):
1  3431U 68081D   19176.37951481 -.00000229 +00000-0 +00000-0 0  9990
2  3431 005.1021 307.4002 0010061 000.5291 023.7157 01.00208761095232
Source of the keplerian elements: AFSPC